Reading, PA

4:10 AM EST on November 20, 2019 (GMT -0500)
Reading Regional-Spaatz

Weather History for KRDG - October, 2019

Change the Weather History Date:

Monday, October 14, 2019

  Actual Average Record
Temperature  
Mean Temperature 62 °F 54 °F  
Max Temperature 73 °F 65 °F 83 °F (1995)
Min Temperature 50 °F 44 °F 28 °F (1981)
Degree Days  
Heating Degree Days 2 11  
Month to date heating degree days 128  
Since 1 July heating degree days 207  
Cooling Degree Days 0 0  
Month to date cooling degree days 5  
Year to date cooling degree days 892  
Growing Degree Days 12 (Base 50)    
Moisture  
Dew Point 49 °F    
Average Humidity 71    
Maximum Humidity 100    
Minimum Humidity 34    
Precipitation  
Precipitation 0.00 in 0.10 in 1.22 in (2003)
Month to date precipitation 1.78  
Year to date precipitation 35.08  
Sea Level Pressure  
Sea Level Pressure 29.99 in    
Wind  
Wind Speed 3 mph ()    
Max Wind Speed 17 mph    
Max Gust Speed 21 mph    
Visibility 10.0 miles    
Events      
T = Trace of Precipitation, MM = Missing Value Source: Averaged Metar Reports

Daily Weather History Graph

Daily Weather History Graph

Search for Another Location

Airport or City:

Astronomy

Oct. 14, 2019 Rise Set
Actual Time 7:13 AM EDT 6:25 PM EDT
Civil Twilight 6:45 AM EDT 6:53 PM EDT
Nautical Twilight 6:14 AM EDT 7:24 PM EDT
Astronomical Twilight 5:42 AM EDT 7:56 PM EDT
Moon 7:14 PM EDT (10/14) 7:42 AM EDT (10/14)
Length of Visible Light 12h 07m
Length of Day
11h 12m
Waxing Gibbous, 99% of the Moon is Illuminated
Oct 14
Waxing Gibbous
Oct 21
Last Quarter
Oct 27
New
Nov 4
First Quarter
Nov 12
Full

Hourly Weather History & Observations

Time (EDT) Temp. Dew Point Humidity Pressure Visibility Wind Dir Wind Speed Gust Speed Precip Events Conditions
12:54 AM 57.9 °F 54.0 °F 87% 30.01 in 10.0 mi South 4.6 mph - N/A   Overcast
1:54 AM 57.0 °F 54.0 °F 89% 29.99 in 10.0 mi SW 3.5 mph - N/A   Overcast
2:15 AM 57.0 °F 55.0 °F 93% 29.97 in 10.0 mi South 4.6 mph - N/A   Overcast
2:54 AM 57.0 °F 55.0 °F 93% 29.97 in 10.0 mi Calm Calm - N/A   Overcast
3:54 AM 55.0 °F 54.0 °F 96% 29.95 in 10.0 mi NNW 3.5 mph - N/A   Mostly Cloudy
4:54 AM 54.0 °F 54.0 °F 100% 29.96 in 10.0 mi NE 3.5 mph - N/A   Overcast
5:54 AM 55.0 °F 54.0 °F 96% 29.99 in 10.0 mi NW 4.6 mph - N/A   Overcast
6:44 AM 54.0 °F 53.1 °F 97% 29.98 in 10.0 mi Calm Calm - N/A   Mostly Cloudy
6:54 AM 53.1 °F 53.1 °F 100% 29.99 in 10.0 mi Calm Calm - N/A   Scattered Clouds
7:54 AM 53.1 °F 53.1 °F 100% 30.01 in 10.0 mi Calm Calm - N/A   Partly Cloudy
8:54 AM 55.9 °F 55.0 °F 97% 30.02 in 10.0 mi Calm Calm - N/A   Clear
9:54 AM 61.0 °F 54.0 °F 78% 30.03 in 10.0 mi Calm Calm - N/A   Partly Cloudy
10:54 AM 64.0 °F 53.1 °F 67% 30.02 in 10.0 mi WSW 3.5 mph - N/A   Clear
11:54 AM 66.0 °F 52.0 °F 60% 30.01 in 10.0 mi Calm Calm - N/A   Clear
12:54 PM 70.0 °F 43.0 °F 38% 29.99 in 10.0 mi WNW 12.7 mph 20.7 mph N/A   Clear
1:54 PM 71.1 °F 42.1 °F 35% 29.97 in 10.0 mi WNW 17.3 mph 20.7 mph N/A   Clear
2:54 PM 72.0 °F 43.0 °F 35% 29.95 in 10.0 mi WNW 16.1 mph 20.7 mph N/A   Clear
3:54 PM 72.0 °F 42.1 °F 34% 29.94 in 10.0 mi WSW 9.2 mph 19.6 mph N/A   Clear
4:54 PM 71.1 °F 42.1 °F 35% 29.94 in 10.0 mi WSW 10.4 mph - N/A   Partly Cloudy
5:54 PM 68.0 °F 42.1 °F 39% 29.96 in 10.0 mi West 3.5 mph - N/A   Clear
6:54 PM 64.9 °F 42.1 °F 43% 29.97 in 10.0 mi Calm Calm - N/A   Clear
7:54 PM 57.0 °F 45.0 °F 64% 30.00 in 10.0 mi Calm Calm - N/A   Clear
8:54 PM 59.0 °F 44.1 °F 58% 30.03 in 10.0 mi WNW 5.8 mph - N/A   Clear
9:54 PM 57.9 °F 45.0 °F 62% 30.06 in 10.0 mi West 3.5 mph - N/A   Clear
10:54 PM 54.0 °F 45.0 °F 72% 30.06 in 10.0 mi Calm Calm - N/A   Clear
11:54 PM 50.0 °F 46.0 °F 86% 30.07 in 10.0 mi Calm Calm - N/A   Clear